Location: Ellingshausen
(50.5460°N, 10.4723°E)
Time: 12:37:31
(UTC+00:00)

Cosmos 676 Rocket - Pass Details

Date: 17 April 2026
Orbit: 750 x 779 km, 74.0° (Epoch: 19 May)

Event Time Altitude Azimuth Distance (km) Brightness Sun altitude
Rises 20:58:43 0° 341° (NNW) 3,271 8.5 -21.7°
Reaches altitude 10° 21:02:11 10° 4° (N) 2,335 7.2 -22.0°
Maximum altitude 21:05:16 15° 40° (NE) 1,978 6.3 -22.3°
Enters shadow 21:07:57 11° 72° (ENE) 2,245 6.2 -22.5°
